Skagway, AK

10:23 PM AKDT on October 18, 2017 (GMT -0800)
Skagway

Weather History for PAGY - September, 2013

Change the Weather History Date:

Wednesday, September 25, 2013

  Actual Average Record
Temperature  
Mean Temperature 46 °F -  
Max Temperature 55 °F 51 °F 64 °F (2014)
Min Temperature 37 °F 41 °F 22 °F (1972)
Degree Days  
Heating Degree Days 20    
Moisture  
Dew Point 40 °F    
Average Humidity 83    
Maximum Humidity 96    
Minimum Humidity 57    
Precipitation  
Precipitation 0.00 in - - ()
Sea Level Pressure  
Sea Level Pressure 30.09 in    
Wind  
Wind Speed 3 mph (SW)    
Max Wind Speed 24 mph    
Max Gust Speed 39 mph    
Visibility 10 miles    
Events      
Averages and records for this station are not official NWS values.
T = Trace of Precipitation, MM = Missing Value Source: NWS Daily Summary

Daily Weather History Graph

Daily Weather History Graph

Search for Another Location

Airport or City:

Trip Planner

Search our weather history database for the weather conditions in past years. The results will help you decide how hot, cold, wet, or windy it might be!

Date:

Astronomy

Sep. 25, 2013 Rise Set
Actual Time 6:53 AM AKDT 6:50 PM AKDT
Civil Twilight 6:12 AM AKDT 7:31 PM AKDT
Nautical Twilight 5:24 AM AKDT 8:19 PM AKDT
Astronomical Twilight 4:31 AM AKDT 9:11 PM AKDT
Moon 9:44 PM AKDT (9/25) 2:24 PM AKDT (9/25)
Length of Visible Light 13h 18m
Length of Day
11h 57m
Waning Gibbous, 62% of the Moon is Illuminated
Sep 25
Waning Gibbous
Sep 26
Last Quarter
Oct 4
New
Oct 11
First Quarter
Oct 18
Full

Hourly Weather History & Observations

Time (AKDT) Temp. Windchill Dew Point Humidity Pressure Visibility Wind Dir Wind Speed Gust Speed Precip Events Conditions
12:53 AM 41.0 °F - 37.9 °F 89% 30.14 in 10.0 mi Calm Calm - N/A   Clear
1:53 AM 39.9 °F - 37.0 °F 89% 30.15 in - Calm Calm - N/A   Clear
2:53 AM 39.0 °F - 37.0 °F 93% 30.15 in - Calm Calm - N/A   Clear
3:53 AM 39.0 °F - 36.0 °F 89% 30.15 in - Calm Calm - N/A   Clear
4:53 AM 37.9 °F 34.4 °F 35.1 °F 89% 30.16 in - NE 4.6 mph - N/A   Clear
5:53 AM 37.9 °F - 35.1 °F 89% 30.15 in - Calm Calm - N/A   Clear
6:53 AM 37.0 °F - 35.1 °F 93% 30.17 in 10.0 mi Calm Calm - N/A   Scattered Clouds
7:03 AM 37.4 °F - 35.6 °F 93% 30.16 in 10.0 mi Calm Calm - N/A   Mostly Cloudy
7:53 AM 39.0 °F - 37.9 °F 96% 30.17 in - Calm Calm - N/A   Overcast
8:22 AM 39.2 °F - 37.4 °F 93% 30.16 in 10.0 mi Calm Calm - N/A   Overcast
8:30 AM 39.2 °F - 37.4 °F 93% 30.17 in 10.0 mi Calm Calm - N/A   Overcast
8:53 AM 39.9 °F - 37.9 °F 93% 30.15 in 10.0 mi Calm Calm - N/A   Overcast
9:34 AM 42.8 °F - 39.2 °F 87% 30.16 in 10.0 mi Calm Calm - N/A   Overcast
9:53 AM 42.1 °F - 39.9 °F 92% 30.15 in 6.0 mi Calm Calm - N/A   Overcast
10:53 AM 43.0 °F - 41.0 °F 93% 30.14 in 10.0 mi Calm Calm - N/A   Overcast
11:14 AM 42.8 °F - 41.0 °F 93% 30.13 in 10.0 mi Calm Calm - N/A   Overcast
11:53 AM 45.0 °F - 42.1 °F 90% 30.14 in 10.0 mi Calm Calm - N/A   Overcast
12:53 PM 46.0 °F - 41.0 °F 83% 30.12 in 10.0 mi Calm Calm - N/A   Overcast
1:50 PM 46.4 °F 42.9 °F 42.8 °F 87% 30.09 in 10.0 mi Variable 6.9 mph - N/A   Overcast
1:53 PM 46.9 °F - 42.1 °F 83% 30.09 in 10.0 mi Variable 3.5 mph - N/A   Overcast
2:08 PM 48.2 °F - 42.8 °F 82% 30.09 in 10.0 mi NE 8.1 mph - N/A   Overcast
2:44 PM 48.2 °F - 42.8 °F 82% 30.08 in 10.0 mi WNW 6.9 mph - N/A   Scattered Clouds
2:53 PM 48.0 °F - 42.1 °F 80% 30.06 in 10.0 mi West 8.1 mph - N/A   Partly Cloudy
3:53 PM 50.0 °F - 42.1 °F 74% 30.04 in 10.0 mi NW 4.6 mph - N/A   Partly Cloudy
4:53 PM 51.1 °F - 42.1 °F 71% 30.03 in - Calm Calm - N/A   Clear
5:53 PM 53.1 °F - 39.0 °F 59% 29.99 in - SSW 16.1 mph - N/A   Clear
6:53 PM 54.0 °F - 39.0 °F 57% 29.96 in - SSW 17.3 mph - N/A   Mostly Cloudy
7:53 PM 53.1 °F - 39.9 °F 61% 29.96 in - SSW 13.8 mph 20.7 mph N/A   Overcast
8:53 PM 54.0 °F - 39.9 °F 59% 29.94 in - SW 24.2 mph 33.4 mph N/A   Overcast
9:53 PM 53.1 °F - 41.0 °F 64% 29.93 in - SSW 18.4 mph 31.1 mph N/A   Overcast
10:53 PM 52.0 °F - 42.1 °F 69% 29.91 in - SSW 21.9 mph 29.9 mph 0.00 in   Overcast
11:53 PM 50.0 °F - 43.0 °F 77% 29.91 in - SSW 23.0 mph 39.1 mph 0.00 in   Overcast